This is the latest recevied weather packets stored in our database for station/object N4DBJ. If no packets are shown the sender has not sent any weather packets the latest 1 day(s).
| Time | Temp. | Humidity | Pressure | Rain* | Wind** | Luminosity | Snow |
|---|---|---|---|---|---|---|---|
| 1778094755 | 15° C | 91% | 1010.9 hPa | 0 mm | - | 379 W/m² | - |
| 1778093846 | 14.44° C | 92% | 1011.1 hPa | 0 mm | - | 143 W/m² | - |
| 1778093542 | 13.89° C | 91% | 1011.5 hPa | 0 mm | - | 197 W/m² | - |
| 1778092937 | 13.89° C | 93% | 1011.7 hPa | 0 mm | - | 185 W/m² | - |
| 1778086570 | 11.67° C | 99% | 1011.3 hPa | 0 mm | - | 133 W/m² | - |
| 1778085963 | 11.11° C | 99% | 1011.3 hPa | 0 mm | - | 145 W/m² | - |
| 1778084440 | 11.11° C | 99% | 1011.5 hPa | 0 mm | - | 65 W/m² | - |
| 1778081218 | 10.56° C | 99% | 1011 hPa | 0 mm | - | 112 W/m² | - |
| 1778079098 | 10.56° C | 99% | 1010.5 hPa | 0 mm | - | 98 W/m² | - |
| 1778078796 | 10.56° C | 99% | 1010.6 hPa | 0 mm | - | 71 W/m² | - |
| 1778078492 | 10.56° C | 99% | 1010.4 hPa | 0 mm | - | 60 W/m² | - |
| 1778078190 | 10.56° C | 99% | 1010.4 hPa | 0 mm | - | 61 W/m² | - |
| 1778077586 | 10.56° C | 99% | 1010 hPa | 0 mm | - | 60 W/m² | - |
| 1778076981 | 10.56° C | 99% | 1009.8 hPa | 0 mm | - | 71 W/m² | - |
| 1778075163 | 10.56° C | 99% | 1009.5 hPa | 0 mm | - | 42 W/m² | - |
| 1778074859 | 10.56° C | 99% | 1009.4 hPa | 0 mm | - | 35 W/m² | - |
| 1778074556 | 10.56° C | 99% | 1009.4 hPa | 0 mm | - | 36 W/m² | - |
| 1778073041 | 10.56° C | 99% | 1009.3 hPa | 0 mm | - | 33 W/m² | - |
| 1778072738 | 10.56° C | 99% | 1009.5 hPa | 0 mm | - | 19 W/m² | - |
| 1778071529 | 10.56° C | 99% | 1009.4 hPa | 0 mm | - | 17 W/m² | - |
| 1778069410 | 10.56° C | 99% | 1009.1 hPa | 0 mm | - | 6 W/m² | - |
| 1778068201 | 10.56° C | 99% | 1008.7 hPa | 0 mm | - | 3 W/m² | - |
| 1778067294 | 10.56° C | 99% | 1008.6 hPa | 0 mm | - | 4 W/m² | - |
| 1778066688 | 10.56° C | 99% | 1008.5 hPa | 0 mm | - | 0 W/m² | - |
| 1778066385 | 10.56° C | 99% | 1008.1 hPa | 0 mm | - | 0 W/m² | - |
* Rain latest hour (hover to see other rain measurements)
** Current wind speed in m/s (hover to see current wind gust speed)